Regional Weather Roundup
Issued by NWS Kansas City/Pleasant Hill, MO

Home | Current Version | Previous Version | Graphics & Text | Print | Product List | Glossary Off
Versions: 1 2 3 4 5 6 7 8 9 10 11 12 13 14 15 16 17 18 19 20 21 22 23 24 25 26 27 28 29 30 31 32 33 34 35 36 37 38 39 40 41 42 43 44 45 46 47 48 49 50

000
ASUS43 KEAX 252010
RWREAX

WEATHER ROUNDUP FOR EASTERN KANSAS AND NORTHWEST MISSOURI
NATIONAL WEATHER SERVICE KANSAS CITY/PLEASANT HILL MO
300 PM CDT THU MAY 25 2017

KSZ040-057-103>105-MOZ028-029-037-043-252100-
...KANSAS CITY METROPOLITAN AREA...

CITY           SKY/WX    TMP DP  RH WIND       PRES   REMARKS
K.C. INTL      MOSUNNY   74  54  49 SE16G23   29.64F
K.C. DOWNTOWN  SUNNY     76  53  44 S7        29.63F
LEES SUMMIT    SUNNY     73  53  49 S10       29.66F
OLATHE - IXD   SUNNY     75  52  44 S16       29.63F
OLATHE - OJC   SUNNY     74  54  49 S14       29.64F
LAWRENCE       SUNNY     78  53  41 SE15G29   29.60F

$$

MOZ001>008-011>017-020>025-030>033-038>040-044>046-053-054-252100-
...NORTHERN AND CENTRAL MISSOURI...

CITY           SKY/WX    TMP DP  RH WIND       PRES   REMARKS
ST. JOSEPH     SUNNY     76  53  44 S12G22    29.62F
WHITEMAN AFB   MOSUNNY   73  52  48 S9        29.67F
CLINTON        NOT AVBL
SEDALIA        SUNNY     74  54  49 S8        29.70F
WARSAW         NOT AVBL
CHILLICOTHE      N/A     72  52  49 S6        29.68F
KIRKSVILLE     SUNNY     70  51  51 S8        29.70F

$$

MOZ041-047>049-056>058-063>065-088>090-097-252100-
...EASTERN AND SOUTHERN MISSOURI...

CITY           SKY/WX    TMP DP  RH WIND       PRES   REMARKS
ST. LOUIS INTL MOSUNNY   76  51  41 W12G17    29.72S
SPIRIT OF STL  MOSUNNY   74  50  42 SW9       29.71F
COLUMBIA       SUNNY     72  50  45 S10       29.71F
JEFFERSON CITY SUNNY     74  48  39 S10       29.71F
OSAGE BEACH    SUNNY     73  51  46 VRB5      29.71F
SPRINGFIELD    SUNNY     74  52  46 S10       29.70F
BRANSON        MOSUNNY   75  54  46 S6        29.74F
JOPLIN         SUNNY     79  57  46 S12       29.66F
WEST PLAINS    SUNNY     72  50  45 S9        29.76F

$$

IAZ060-094-KSZ022-034>040-054-083-096-NEZ052-066-093-252100-
...KANSAS...SOUTHEAST NEBRASKA AND IOWA...

CITY           SKY/WX    TMP DP  RH WIND       PRES   REMARKS
TOPEKA         SUNNY     77  54  44 SE18G24   29.59F
MANHATTAN      PTSUNNY   78  54  43 S16       29.55F
EMPORIA        MOSUNNY   75  53  46 S18G25    29.57F
CHANUTE        SUNNY     75  53  46 SE17G28   29.61F
WICHITA        MOSUNNY   79  56  45 S18G25    29.53F
OMAHA          MOSUNNY   76  50  40 S21G31    29.56F
LINCOLN        SUNNY     78  52  40 S16G28    29.54F
FALLS CITY     SUNNY     75  53  46 SE20G28   29.57F
LAMONI         SUNNY     70  52  52 S8        29.66F
DES MOINES     MOSUNNY   72  50  45 S12G20    29.65F

$$




USA.gov is the U.S. government's official web portal to all federal, state and local government web resources and services.